Home   Weather   Kwajalein   Past weeks

Flag for Marshall Islands Past Weather in Kwajalein, Marshall Islands — Yesterday and Last 2 Weeks

Now
83 °F

Scattered clouds.


Feels Like: 90 °F
Forecast: 83 / 89 °F
Wind: 9 mph from East

Location: Kwajalein / Bucholz

Current Time: Aug 19, 2017 at 8:22:47 am

Latest Report: Aug 19, 2017 at 8:00 am


Visibility: 10 mi

Pressure: 29.81 "Hg

Humidity: 75%

Dew Point: 74 °F

Location of KwajaleinLocation

Past Weather in Kwajalein — Graph

°F

Kwajalein Temperature Yesterday

Maximum temperature yesterday: 89 °F (at 3:00 pm)
Minimum temperature yesterday: 82 °F (at 4:20 am)
Average temperature yesterday: 85 °F

High & Low Weather Summary for the Past Weeks

 TemperatureHumidityPressure
High89 °F (Aug 9, 1:40 pm)95% (Aug 13, 5:00 am)29.95 "Hg (Aug 13, 5:00 am)
Low77 °F (Aug 16, 5:20 am)63% (Aug 11, 1:00 pm)29.74 "Hg (Aug 18, 4:20 pm)
Average84 °F75%29.84 "Hg
* Reported Aug 4 7:00 am — Aug 19 7:00 am, Kwajalein. Weather by CustomWeather, © 2017

Note: Actual official high and low records may vary slightly from our data, if they occured in-between our weather recording intervals... More about our weather records

Advertising

Kwajalein Weather History for the Previous 24 Hours

Scroll right to see more
 ConditionsComfort  
Time TempWeatherWind HumidityBarometerVisibility
7:00 am
Sat, Aug 19
82 °FScattered clouds.10 mph78%29.80 "Hg10 mi
6:20 am82 °FPassing clouds.10 mph78%29.79 "Hg10 mi
6:00 am82 °FClear.10 mph78%29.78 "Hg10 mi
5:40 am82 °FPassing clouds.10 mph79%29.78 "Hg10 mi
5:20 am82 °FPassing clouds.12 mph80%29.77 "Hg10 mi
5:00 am82 °FClear.10 mph80%29.77 "Hg10 mi
4:20 am82 °FClear.9 mph80%29.76 "Hg10 mi
4:00 am82 °FPassing clouds.10 mph79%29.77 "Hg10 mi
3:40 am82 °FPassing clouds.10 mph78%29.77 "Hg10 mi
3:20 am82 °FPassing clouds.10 mph78%29.77 "Hg10 mi
3:00 am82 °FClear.8 mph79%29.77 "Hg10 mi
2:40 am82 °FClear.12 mph78%29.78 "Hg10 mi
2:20 am82 °FClear.10 mph78%29.78 "Hg10 mi
2:00 am82 °FPassing clouds.12 mph80%29.79 "Hg10 mi
1:40 am82 °FPartly cloudy.10 mph81%29.79 "Hg10 mi
1:20 am82 °FClear.10 mph81%29.80 "Hg10 mi
1:00 am82 °FClear.9 mph81%29.81 "Hg10 mi
12:20 am82 °FPassing clouds.10 mph79%29.82 "Hg10 mi
12:00 am83 °FPassing clouds.12 mph77%29.83 "Hg10 mi
11:40 pm
Fri, Aug 18
83 °FPassing clouds.10 mph77%29.84 "Hg10 mi
11:20 pm83 °FRain. Passing clouds.13 mph75%29.84 "Hg7 mi
11:00 pm84 °FPassing clouds.13 mph75%29.83 "Hg10 mi
10:40 pm84 °FClear.12 mph75%29.83 "Hg10 mi
10:20 pm84 °FClear.12 mph75%29.83 "Hg10 mi
10:00 pm84 °FClear.12 mph75%29.83 "Hg10 mi
9:40 pm84 °FClear.13 mph75%29.83 "Hg10 mi
9:20 pm84 °FPassing clouds.13 mph74%29.82 "Hg10 mi
9:00 pm84 °FPassing clouds.13 mph73%29.81 "Hg10 mi
8:20 pm85 °FClear.13 mph73%29.80 "Hg10 mi
8:00 pm85 °FClear.14 mph72%29.79 "Hg10 mi
7:40 pm85 °FClear.14 mph71%29.78 "Hg10 mi
7:20 pm86 °FClear.15 mph71%29.78 "Hg7 mi
7:00 pm86 °FSunny.13 mph70%29.77 "Hg10 mi
6:40 pm87 °FScattered clouds.15 mph68%29.76 "Hg10 mi
6:20 pm87 °FScattered clouds.13 mph67%29.76 "Hg10 mi
6:00 pm88 °FScattered clouds.13 mph66%29.75 "Hg10 mi
5:20 pm88 °FScattered clouds.13 mph66%29.74 "Hg10 mi
5:00 pm88 °FScattered clouds.13 mph67%29.74 "Hg10 mi
4:40 pm89 °FScattered clouds.14 mph67%29.74 "Hg10 mi
4:20 pm89 °FScattered clouds.12 mph66%29.74 "Hg10 mi
4:00 pm89 °FSunny.13 mph66%29.75 "Hg10 mi
3:40 pm89 °FScattered clouds.12 mph66%29.75 "Hg10 mi
3:20 pm89 °FScattered clouds.14 mph65%29.75 "Hg10 mi
3:00 pm89 °FSunny.13 mph65%29.75 "Hg10 mi
2:20 pm89 °FScattered clouds.15 mph66%29.76 "Hg10 mi
2:00 pm89 °FScattered clouds.14 mph67%29.77 "Hg10 mi
1:20 pm88 °FScattered clouds.14 mph69%29.79 "Hg10 mi
1:00 pm88 °FScattered clouds.14 mph71%29.80 "Hg10 mi
12:20 pm88 °FBroken clouds.12 mph71%29.80 "Hg10 mi
12:00 pm88 °FScattered clouds.13 mph70%29.81 "Hg10 mi
11:20 am88 °FSunny.14 mph66%29.83 "Hg10 mi
11:00 am88 °FScattered clouds.13 mph66%29.83 "Hg7 mi
10:40 am88 °FScattered clouds.12 mph66%29.84 "Hg10 mi
10:20 am87 °FSunny.13 mph66%29.84 "Hg10 mi
10:00 am87 °FSunny.13 mph66%29.84 "Hg10 mi
9:20 am86 °FScattered clouds.13 mph68%29.84 "Hg10 mi
9:00 am86 °FScattered clouds.14 mph69%29.84 "Hg10 mi
8:40 am85 °FSunny.13 mph70%29.83 "Hg10 mi
8:20 am84 °FSunny.12 mph72%29.83 "Hg10 mi
8:00 am84 °FSunny.14 mph74%29.83 "Hg10 mi
Weather by CustomWeather, © 2017

See weather overviewHow to use our weather pages